Weather History for Poteau, OK

Change the Weather History Date:

Saturday, March 16, 2013

  Actual Average (KFSM) Record (KFSM)
Temperature  
Mean Temperature 70 °F 53 °F  
Max Temperature 80 °F 65 °F 86 °F (1908)
Min Temperature 59 °F 41 °F 24 °F (1900)
Degree Days  
Heating Degree Days 0 12  
Month to date heating degree days 231  
Since 1 July heating degree days 2904  
Cooling Degree Days 4 0  
Month to date cooling degree days 0  
Year to date cooling degree days 1  
Growing Degree Days 20 (Base 50)    
Moisture  
Dew Point 52 °F    
Average Humidity 54    
Maximum Humidity 82    
Minimum Humidity 39    
Precipitation  
Precipitation 0.00 in 0.13 in 0.92 in (2014)
Month to date precipitation 1.91  
Year to date precipitation 7.48  
Sea Level Pressure  
Sea Level Pressure 29.80 in    
Wind  
Wind Speed 10 mph (SSW)    
Max Wind Speed 15 mph    
Max Gust Speed 22 mph    
Visibility 10 miles    
Events      
T = Trace of Precipitation, MM = Missing Value Source: NWS Daily Summary

Daily Weather History Graph

Daily Weather History Graph

Search for Another Location

Airport:

Trip Planner

Search our weather history database for the weather conditions in past years. The results will help you decide how hot, cold, wet, or windy it might be!

Date:

Astronomy

Mar. 16, 2013 Rise Set
Actual Time 7:27 AM CDT 7:27 PM CDT
Civil Twilight 7:02 AM CDT 7:52 PM CDT
Nautical Twilight 6:32 AM CDT 8:21 PM CDT
Astronomical Twilight 6:03 AM CDT 8:51 PM CDT
Moon 10:09 AM CDT (3/16) No Moon Set
Length of Visible Light 12h 50m
Length of Day
11h 59m
Waxing Crescent, 23% of the Moon is Illuminated
Mar 16
Waxing Crescent
Mar 19
First Quarter
Mar 27
Full
Apr 2
Last Quarter
Apr 10
New

Hourly Weather History & Observations

Time (CDT) Temp. Heat Index Dew Point Humidity Pressure Visibility Wind Dir Wind Speed Gust Speed Precip Events Conditions
12:15 AM 71.6 °F - 48.2 °F 43% 29.85 in 10.0 mi SSW 12.7 mph - N/A   Clear
12:35 AM 71.6 °F - 46.4 °F 41% 29.84 in 10.0 mi SSW 13.8 mph 20.7 mph N/A   Clear
12:55 AM 69.8 °F - 46.4 °F 43% 29.83 in 10.0 mi SSW 15.0 mph - N/A   Clear
1:15 AM 69.8 °F - 46.4 °F 43% 29.83 in 10.0 mi SSW 15.0 mph - N/A   Clear
1:35 AM 68.0 °F - 46.4 °F 46% 29.83 in 10.0 mi SSW 15.0 mph - N/A   Clear
1:55 AM 68.0 °F - 46.4 °F 46% 29.83 in 10.0 mi SSW 12.7 mph - N/A   Clear
2:15 AM 68.0 °F - 48.2 °F 49% 29.82 in 10.0 mi SSW 15.0 mph - N/A   Clear
2:35 AM 68.0 °F - 48.2 °F 49% 29.82 in 10.0 mi SSW 15.0 mph - N/A   Clear
2:55 AM 68.0 °F - 50.0 °F 52% 29.82 in 10.0 mi SSW 15.0 mph - N/A   Clear
3:15 AM 68.0 °F - 50.0 °F 52% 29.81 in 10.0 mi SW 15.0 mph - N/A   Clear
3:35 AM 68.0 °F - 50.0 °F 52% 29.81 in 10.0 mi SW 13.8 mph 18.4 mph N/A   Clear
3:55 AM 68.0 °F - 50.0 °F 52% 29.81 in 10.0 mi SW 15.0 mph 19.6 mph N/A   Clear
4:15 AM 68.0 °F - 50.0 °F 52% 29.80 in 10.0 mi SW 15.0 mph 20.7 mph N/A   Clear
4:35 AM 66.2 °F - 50.0 °F 56% 29.80 in 10.0 mi SW 11.5 mph 21.9 mph N/A   Clear
4:55 AM 66.2 °F - 50.0 °F 56% 29.81 in 10.0 mi SW 9.2 mph - N/A   Clear
5:35 AM 62.6 °F - 50.0 °F 63% 29.82 in 10.0 mi SSW 9.2 mph - N/A   Clear
5:55 AM 62.6 °F - 50.0 °F 63% 29.82 in 10.0 mi South 8.1 mph - N/A   Clear
6:15 AM 60.8 °F - 50.0 °F 68% 29.82 in 10.0 mi SSW 10.4 mph - N/A   Clear
6:35 AM 60.8 °F - 51.8 °F 72% 29.82 in 10.0 mi SSW 10.4 mph - N/A   Clear
6:55 AM 60.8 °F - 51.8 °F 72% 29.83 in 10.0 mi SSW 10.4 mph - N/A   Clear
7:15 AM 60.8 °F - 51.8 °F 72% 29.83 in 10.0 mi SSW 10.4 mph - N/A   Clear
7:35 AM 60.8 °F - 51.8 °F 72% 29.83 in 10.0 mi SSW 9.2 mph - N/A   Clear
7:55 AM 59.0 °F - 51.8 °F 77% 29.83 in 10.0 mi SSW 6.9 mph - N/A   Clear
8:15 AM 60.8 °F - 51.8 °F 72% 29.83 in 10.0 mi SSW 6.9 mph - N/A   Clear
8:35 AM 62.6 °F - 51.8 °F 68% 29.84 in 10.0 mi SSW 5.8 mph - N/A   Clear
8:55 AM 64.4 °F - 51.8 °F 64% 29.85 in 10.0 mi SSW 8.1 mph - N/A   Clear
9:15 AM 66.2 °F - 51.8 °F 60% 29.85 in 10.0 mi SSW 8.1 mph - N/A   Clear
9:35 AM 68.0 °F - 53.6 °F 60% 29.85 in 10.0 mi SSW 9.2 mph - N/A   Clear
9:55 AM 69.8 °F - 53.6 °F 56% 29.85 in 10.0 mi SSW 11.5 mph - N/A   Clear
10:15 AM 71.6 °F - 53.6 °F 53% 29.85 in 10.0 mi South 12.7 mph - N/A   Clear
10:35 AM 71.6 °F - 53.6 °F 53% 29.86 in 10.0 mi South 9.2 mph - N/A   Clear
10:55 AM 71.6 °F - 53.6 °F 53% 29.86 in 10.0 mi SW 8.1 mph - N/A   Clear
11:15 AM 71.6 °F - 53.6 °F 53% 29.86 in 10.0 mi SSW 8.1 mph - N/A   Clear
11:35 AM 73.4 °F - 53.6 °F 50% 29.85 in 10.0 mi SSW 9.2 mph - N/A   Clear
11:55 AM 73.4 °F - 53.6 °F 50% 29.85 in 10.0 mi WSW 9.2 mph - N/A   Clear
12:15 PM 77.0 °F - 53.6 °F 44% 29.85 in 10.0 mi SSW 9.2 mph - N/A   Clear
12:35 PM 77.0 °F - 53.6 °F 44% 29.85 in 10.0 mi SSW 5.8 mph - N/A   Clear
12:55 PM 77.0 °F - 53.6 °F 44% 29.84 in 10.0 mi SW 6.9 mph - N/A   Clear
1:15 PM 77.0 °F - 51.8 °F 41% 29.83 in 10.0 mi SSW 6.9 mph - N/A   Clear
1:35 PM 77.0 °F - 51.8 °F 41% 29.82 in 10.0 mi SSW 4.6 mph - N/A   Clear
1:55 PM 77.0 °F - 53.6 °F 44% 29.81 in 10.0 mi SSE 9.2 mph - N/A   Clear
2:15 PM 78.8 °F - 53.6 °F 42% 29.80 in 10.0 mi SSW 6.9 mph 17.3 mph N/A   Clear
2:35 PM 78.8 °F - 53.6 °F 42% 29.79 in 10.0 mi South 4.6 mph 9.2 mph N/A   Clear
2:55 PM 78.8 °F - 53.6 °F 42% 29.77 in 10.0 mi South 8.1 mph - N/A   Clear
3:15 PM 78.8 °F - 53.6 °F 42% 29.76 in 10.0 mi SSW 11.5 mph 16.1 mph N/A   Clear
3:35 PM 78.8 °F - 53.6 °F 42% 29.75 in 10.0 mi South 8.1 mph - N/A   Clear
3:55 PM 80.6 °F 80.5 °F 55.4 °F 42% 29.74 in 10.0 mi South 10.4 mph - N/A   Clear
4:15 PM 80.6 °F 80.3 °F 53.6 °F 39% 29.74 in 10.0 mi South 11.5 mph 16.1 mph N/A   Clear
4:35 PM 80.6 °F 80.3 °F 53.6 °F 39% 29.74 in 10.0 mi South 13.8 mph - N/A   Clear
4:55 PM 80.6 °F 80.3 °F 53.6 °F 39% 29.73 in 10.0 mi South 8.1 mph - N/A   Clear
5:15 PM 80.6 °F 80.5 °F 55.4 °F 42% 29.73 in 10.0 mi South 12.7 mph 18.4 mph N/A   Clear
5:35 PM 80.6 °F 80.3 °F 53.6 °F 39% 29.72 in 10.0 mi South 11.5 mph 19.6 mph N/A   Clear
5:55 PM 78.8 °F - 53.6 °F 42% 29.73 in 10.0 mi SSE 10.4 mph - N/A   Clear
6:15 PM 78.8 °F - 53.6 °F 42% 29.72 in 10.0 mi South 11.5 mph 16.1 mph N/A   Clear
6:35 PM 78.8 °F - 53.6 °F 42% 29.73 in 10.0 mi South 11.5 mph - N/A   Clear
6:55 PM 77.0 °F - 53.6 °F 44% 29.74 in 10.0 mi South 9.2 mph - N/A   Clear
7:15 PM 77.0 °F - 55.4 °F 47% 29.74 in 10.0 mi South 6.9 mph - N/A   Clear
7:35 PM 77.0 °F - 55.4 °F 47% 29.74 in 10.0 mi South 5.8 mph - N/A   Clear
7:55 PM 77.0 °F - 55.4 °F 47% 29.75 in 10.0 mi South 3.5 mph - N/A   Clear
8:15 PM 71.6 °F - 53.6 °F 53% 29.75 in 10.0 mi SSE 3.5 mph - N/A   Clear
8:35 PM 71.6 °F - 55.4 °F 57% 29.75 in 10.0 mi Calm Calm - N/A   Clear
8:55 PM 68.0 °F - 55.4 °F 64% 29.76 in 10.0 mi Calm Calm - N/A   Clear
9:15 PM 66.2 °F - 55.4 °F 68% 29.76 in 10.0 mi Calm Calm - N/A   Clear
9:35 PM 68.0 °F - 55.4 °F 64% 29.77 in 10.0 mi Calm Calm - N/A   Scattered Clouds
9:55 PM 64.4 °F - 55.4 °F 73% 29.77 in 10.0 mi Calm Calm - N/A   Mostly Cloudy
10:15 PM 64.4 °F - 55.4 °F 73% 29.77 in 10.0 mi Calm Calm - N/A   Mostly Cloudy
10:35 PM 64.4 °F - 55.4 °F 73% 29.77 in 10.0 mi Calm Calm - N/A   Overcast
10:55 PM 62.6 °F - 55.4 °F 77% 29.77 in 10.0 mi Calm Calm - N/A   Mostly Cloudy
11:15 PM 62.6 °F - 55.4 °F 77% 29.78 in 10.0 mi Calm Calm - N/A   Overcast
11:35 PM 62.6 °F - 55.4 °F 77% 29.78 in 10.0 mi Calm Calm - N/A   Mostly Cloudy
11:55 PM 60.8 °F - 55.4 °F 82% 29.78 in 10.0 mi Calm Calm - N/A   Scattered Clouds